Location: Krasnoyarskiy Pitomnik
(51.1333°N, 71.6167°E)
Time: 14:42:38
(UTC+00:00)

Cosmos 1844 Rocket - Visible Passes

Search period start: 23 May 2022 00:00
Search period end: 02 June 2022 00:00
Orbit: 825 x 844 km, 71.0° (Epoch: 22 May)

Date Brightness Start Highest point End Pass type
(mag) Time Alt. Az. Time Alt. Az. Time Alt. Az.
23 May 4.6 16:21:37 10° NNW 16:25:48 21° NE 16:29:58 10° E visible
23 May 2.7 18:05:03 10° NNW 18:10:40 76° ENE 18:13:58 25° SE visible
23 May 4.1 19:49:52 10° NW 19:53:57 21° W 19:55:37 19° SW visible
24 May 4.7 16:04:24 10° NNW 16:08:28 20° NE 16:12:30 10° E visible
24 May 2.8 17:47:47 10° NNW 17:53:24 70° ENE 17:56:57 23° SE visible
24 May 4.1 19:32:29 10° NW 19:36:47 23° WSW 19:38:36 20° SW visible
25 May 4.7 15:47:11 10° NNW 15:51:07 19° NNE 15:55:02 10° ENE visible
25 May 2.9 17:30:33 10° NNW 17:36:08 65° ENE 17:39:58 20° SE visible
25 May 4.0 19:15:07 10° NW 19:19:34 25° WSW 19:21:36 20° SW visible
26 May 3.0 17:13:18 10° NNW 17:18:52 61° NE 17:23:00 18° SE visible
26 May 3.9 18:57:45 10° NW 19:02:22 27° WSW 19:04:39 21° SW visible
27 May 3.1 16:56:03 10° NNW 17:01:35 57° NE 17:06:04 15° SE visible
27 May 3.9 18:40:25 10° NW 18:45:10 29° WSW 18:47:43 20° SW visible
28 May 3.2 16:38:48 10° NNW 16:44:18 53° NE 16:49:10 13° SE visible
28 May 3.8 18:23:05 10° NW 18:27:58 32° WSW 18:30:49 20° SSW visible
29 May 3.3 16:21:34 10° NNW 16:27:00 49° NE 16:32:18 11° SE visible
29 May 3.7 18:05:45 10° NW 18:10:45 34° WSW 18:13:57 19° SSW visible
30 May 3.3 16:04:19 10° NNW 16:09:44 46° NE 16:15:04 10° SE visible
30 May 3.6 17:48:26 10° NW 17:53:32 37° WSW 17:57:07 18° SSW visible
31 May 3.5 17:31:08 10° NW 17:36:19 40° WSW 17:40:19 16° S visible
01 Jun 3.4 17:13:50 10° NW 17:19:06 44° WSW 17:23:32 14° S visible
